Location: Unspecified
(22.6800°N, 112.2000°E)
Time: 07:34:55
(UTC+08:00)

Courier 1B Rocket - Pass Details

Date: 31 July 2021
Orbit: 920 x 1202 km, 28.3° (Epoch: 22 September)

Event Time Altitude Azimuth Distance (km) Brightness Sun altitude
Exits shadow 03:17:36 58° 17° (NNE) 1,098 5.3 -33.4°
Drops below altitude 10° 03:23:11 10° 70° (ENE) 2,621 8.0 -32.4°
Sets 03:25:47 0° 73° (ENE) 3,552 8.8 -32.0°
